EN

Hourly Weather Papendrecht

Today, 21 April, Wednesday

Time Temperature Precipitation Wind Pressure Humidity
00:00 +10°C° 0 mm 2 mps 762 mmHg 61%
01:00 +10°C° 0 mm 2 mps 762 mmHg 61%
02:00 +9°C° 0 mm 2 mps 762 mmHg 61%
03:00 +9°C° 0 mm 2 mps 762 mmHg 61%
04:00 +9°C° 0 mm 2 mps 762 mmHg 63%
05:00 +9°C° 0 mm 2 mps 762 mmHg 64%
06:00 +9°C° 0 mm 2 mps 762 mmHg 66%
07:00 +10°C° 0 mm 3 mps 763 mmHg 65%
08:00 +11°C° 0 mm 3 mps 763 mmHg 64%
09:00 +11°C° 0 mm 4 mps 763 mmHg 62%
10:00 +12°C° 0 mm 4 mps 763 mmHg 62%
11:00 +13°C° 0 mm 5 mps 763 mmHg 61%
12:00 +13°C° 0 mm 5 mps 764 mmHg 60%
13:00 +13°C° 0 mm 5 mps 764 mmHg 58%
14:00 +11°C° 0 mm 6 mps 764 mmHg 56%
15:00 +11°C° 0 mm 6 mps 764 mmHg 55%
16:00 +10°C° 0 mm 6 mps 764 mmHg 57%
17:00 +8°C° 0 mm 6 mps 765 mmHg 59%
18:00 +7°C° 0 mm 6 mps 765 mmHg 62%
19:00 +6°C° 0 mm 5 mps 766 mmHg 63%
20:00 +5°C° 0 mm 5 mps 766 mmHg 65%
21:00 +4°C° 0 mm 4 mps 767 mmHg 67%
22:00 +3°C° 0 mm 3 mps 767 mmHg 68%
23:00 +3°C° 0 mm 3 mps 767 mmHg 70%

Tomorrow, 22 April, Thursday

Time Temperature Precipitation Wind Pressure Humidity
00:00 +3°C° 0 mm 2 mps 768 mmHg 71%
01:00 +3°C° 0 mm 2 mps 768 mmHg 72%
02:00 +3°C° 0 mm 2 mps 768 mmHg 73%
03:00 +2°C° 0 mm 2 mps 768 mmHg 74%
04:00 +3°C° 0 mm 2 mps 768 mmHg 73%
05:00 +4°C° 0 mm 2 mps 768 mmHg 72%
06:00 +5°C° 0 mm 2 mps 769 mmHg 72%
07:00 +5°C° 0 mm 3 mps 769 mmHg 66%
08:00 +8°C° 0 mm 3 mps 769 mmHg 60%
09:00 +8°C° 0 mm 4 mps 769 mmHg 55%
10:00 +10°C° 0 mm 4 mps 769 mmHg 53%
11:00 +11°C° 0 mm 4 mps 769 mmHg 50%
12:00 +11°C° 0 mm 4 mps 769 mmHg 48%
13:00 +10°C° 0 mm 5 mps 769 mmHg 49%
14:00 +10°C° 0 mm 5 mps 769 mmHg 50%
15:00 +10°C° 0 mm 5 mps 769 mmHg 51%
16:00 +9°C° 0 mm 5 mps 770 mmHg 56%
17:00 +8°C° 0 mm 4 mps 770 mmHg 61%
18:00 +7°C° 0 mm 4 mps 770 mmHg 67%
19:00 +7°C° 0 mm 3 mps 770 mmHg 73%
20:00 +5°C° 0 mm 3 mps 771 mmHg 79%
21:00 +4°C° 0 mm 2 mps 771 mmHg 84%
22:00 +4°C° 0 mm 2 mps 771 mmHg 86%
23:00 +4°C° 0 mm 2 mps 771 mmHg 87%

Day after tomorrow, 23 April, Friday

Time Temperature Precipitation Wind Pressure Humidity
00:00 +5°C° 0 mm 1 mps 771 mmHg 89%
01:00 +4°C° 0 mm 1 mps 771 mmHg 89%
02:00 +4°C° 0 mm 1 mps 771 mmHg 90%
03:00 +4°C° 0 mm 1 mps 771 mmHg 91%
04:00 +5°C° 0 mm 1 mps 772 mmHg 89%
05:00 +5°C° 0 mm 1 mps 772 mmHg 87%
06:00 +6°C° 0 mm 1 mps 772 mmHg 85%
07:00 +8°C° 0 mm 1 mps 772 mmHg 77%
08:00 +8°C° 0 mm 2 mps 772 mmHg 68%
09:00 +10°C° 0 mm 2 mps 772 mmHg 60%
10:00 +11°C° 0 mm 3 mps 772 mmHg 55%
11:00 +12°C° 0 mm 3 mps 772 mmHg 51%
12:00 +13°C° 0 mm 3 mps 772 mmHg 46%
13:00 +13°C° 0 mm 3 mps 772 mmHg 46%
14:00 +13°C° 0 mm 4 mps 772 mmHg 45%
15:00 +13°C° 0 mm 4 mps 772 mmHg 45%
16:00 +12°C° 0 mm 4 mps 772 mmHg 51%
17:00 +11°C° 0 mm 4 mps 772 mmHg 57%
18:00 +9°C° 0 mm 3 mps 772 mmHg 63%
19:00 +8°C° 0 mm 3 mps 772 mmHg 68%
20:00 +7°C° 0 mm 3 mps 772 mmHg 73%
21:00 +4°C° 0 mm 3 mps 772 mmHg 79%
22:00 +4°C° 0 mm 3 mps 772 mmHg 82%
23:00 +3°C° 0 mm 3 mps 772 mmHg 85%

24 April, Saturday

Time Temperature Precipitation Wind Pressure Humidity
00:00 +4°C° 0 mm 2 mps 772 mmHg 88%
01:00 +4°C° 0 mm 2 mps 772 mmHg 89%
02:00 +3°C° 0 mm 2 mps 772 mmHg 90%
03:00 +3°C° 0 mm 2 mps 772 mmHg 91%
04:00 +4°C° 0 mm 2 mps 772 mmHg 89%
05:00 +4°C° 0 mm 2 mps 772 mmHg 87%
06:00 +5°C° 0 mm 2 mps 772 mmHg 85%
07:00 +7°C° 0 mm 2 mps 772 mmHg 79%
08:00 +8°C° 0 mm 3 mps 772 mmHg 72%
09:00 +10°C° 0 mm 3 mps 772 mmHg 66%
10:00 +11°C° 0 mm 3 mps 772 mmHg 62%
11:00 +12°C° 0 mm 3 mps 771 mmHg 59%
12:00 +13°C° 0 mm 4 mps 771 mmHg 56%
13:00 +12°C° 0 mm 4 mps 771 mmHg 56%
14:00 +12°C° 0 mm 4 mps 771 mmHg 57%
15:00 +12°C° 0 mm 4 mps 771 mmHg 58%
16:00 +12°C° 0 mm 4 mps 771 mmHg 62%
17:00 +11°C° 0 mm 4 mps 771 mmHg 66%
18:00 +10°C° 0 mm 4 mps 771 mmHg 70%
19:00 +9°C° 0 mm 3 mps 771 mmHg 76%
20:00 +7°C° 0 mm 3 mps 771 mmHg 82%
21:00 +5°C° 0 mm 3 mps 771 mmHg 88%
22:00 +4°C° 0 mm 3 mps 771 mmHg 89%
23:00 +4°C° 0 mm 3 mps 771 mmHg 89%

25 April, Sunday

Time Temperature Precipitation Wind Pressure Humidity
00:00 +3°C° 0 mm 3 mps 772 mmHg 90%
01:00 +3°C° 0 mm 3 mps 771 mmHg 90%
02:00 +2°C° 0 mm 3 mps 771 mmHg 91%
03:00 +2°C° 0 mm 3 mps 771 mmHg 92%
04:00 +2°C° 0 mm 3 mps 771 mmHg 89%
05:00 +3°C° 0 mm 3 mps 771 mmHg 87%
06:00 +3°C° 0 mm 3 mps 771 mmHg 84%
07:00 +5°C° 0 mm 3 mps 771 mmHg 77%
08:00 +6°C° 0 mm 4 mps 771 mmHg 69%
09:00 +8°C° 0 mm 4 mps 771 mmHg 61%
10:00 +10°C° 0 mm 4 mps 771 mmHg 56%
11:00 +11°C° 0 mm 4 mps 770 mmHg 51%
12:00 +12°C° 0 mm 4 mps 770 mmHg 46%
13:00 +13°C° 0 mm 4 mps 770 mmHg 45%
14:00 +13°C° 0 mm 4 mps 769 mmHg 45%
15:00 +13°C° 0 mm 4 mps 769 mmHg 45%
16:00 +12°C° 0 mm 4 mps 769 mmHg 51%
17:00 +10°C° 0 mm 5 mps 768 mmHg 57%
18:00 +9°C° 0 mm 5 mps 768 mmHg 63%
19:00 +7°C° 0 mm 5 mps 768 mmHg 66%
20:00 +6°C° 0 mm 4 mps 768 mmHg 70%
21:00 +5°C° 0 mm 4 mps 768 mmHg 73%
22:00 +4°C° 0 mm 4 mps 768 mmHg 77%
23:00 +3°C° 0 mm 4 mps 768 mmHg 80%

26 April, Monday

Time Temperature Precipitation Wind Pressure Humidity
00:00 +2°C° 0 mm 3 mps 768 mmHg 84%
01:00 +2°C° 0 mm 3 mps 767 mmHg 85%
02:00 +1°C° 0 mm 3 mps 767 mmHg 87%
03:00 +1°C° 0 mm 3 mps 767 mmHg 89%
04:00 +2°C° 0 mm 3 mps 766 mmHg 86%
05:00 +3°C° 0 mm 4 mps 766 mmHg 83%
06:00 +3°C° 0 mm 4 mps 765 mmHg 81%
07:00 +5°C° 0 mm 4 mps 765 mmHg 73%
08:00 +8°C° 0 mm 4 mps 765 mmHg 65%
09:00 +11°C° 0 mm 4 mps 765 mmHg 57%
10:00 +12°C° 0 mm 4 mps 764 mmHg 52%
11:00 +14°C° 0 mm 4 mps 763 mmHg 48%
12:00 +15°C° 0 mm 4 mps 762 mmHg 44%
13:00 +16°C° 0 mm 3 mps 761 mmHg 43%
14:00 +16°C° 0 mm 3 mps 760 mmHg 42%
15:00 +17°C° 0 mm 3 mps 760 mmHg 41%
16:00 +16°C° 0 mm 3 mps 759 mmHg 48%
17:00 +14°C° 0 mm 3 mps 758 mmHg 54%
18:00 +12°C° 0 mm 3 mps 758 mmHg 61%
19:00 +11°C° 0 mm 3 mps 757 mmHg 64%
20:00 +10°C° 0 mm 2 mps 757 mmHg 66%
21:00 +9°C° 0 mm 2 mps 757 mmHg 69%
22:00 +8°C° 0 mm 2 mps 756 mmHg 70%
23:00 +8°C° 0 mm 2 mps 755 mmHg 71%
Show more

We Need Your Consent

Meteoprog and our Service Providers may store and access personal data such as cookies, device identifiers or other similar technologies on your device and process such data to personalise content and ads, as well as provide social media features and to analyse the traffic.

  • Store and/or access information on your device

    Cookies, device identifiers or other information can be stored or accessed on your device for the purposes indicated above.

  • Personalised ads and content, ad and content measurement, audience insights, and products development

    Ads and content can be personalised based on a profile. More data can be added to better personalise ads and content. Ad and content performance can be measured. Insights about the audience who saw the ads and content can be derived. Such data can be used to develop or improve user’s experience, systems and software.

By clicking ‘I Agree’ you will allow the use of indicated cookies, device identifiers, web beacons or other similar technologies. Your settings can be changed in the browser on your device.

For certain purposes, legitimate interests may be relied on, rather than consent. You can read more about this in our Privacy and Cookie Policy.